EW9363 Weather Reports


time (UTC)temp
C
wind
direction
speed
KPH
gust
KPH
rain 1hr
cm
rain 24hr
cm
rain mn
cm
humidity
%
barometer
mb
20260506135850 21 182 0.0 4.8 0.00 0.00 0.00 82 1018.1
20260506135350 21 191 0.0 4.8 0.00 0.00 0.00 83 1018.2
20260506135118 20 243 0.0 3.2 0.00 0.00 0.00 84 1018.2
20260506134344 20 260 0.0 3.2 0.00 0.00 0.00 85 1018.2
20260506133838 20 182 0.0 4.8 0.00 0.00 0.00 85 1018.4
20260506133333 20 183 1.6 6.4 0.00 0.00 0.00 86 1018.2
20260506132826 20 211 1.6 8.0 0.00 0.00 0.00 86 1018.2
20260506132321 19 187 1.6 9.7 0.00 0.00 0.00 86 1018.1
20260506131814 19 199 1.6 9.7 0.00 0.00 0.00 86 1018.1
20260506131529 19 280 1.6 6.4 0.00 0.00 0.00 86 1018.0
20260506131022 18 206 1.6 8.0 0.00 0.00 0.00 87 1017.9
20260506130257 18 207 1.6 8.0 0.00 0.00 0.00 87 1017.8
20260506125757 18 217 1.6 6.4 0.00 0.00 0.00 87 1017.9
20260506125521 18 184 1.6 6.4 0.00 0.00 0.00 87 1017.9
20260506124758 18 208 1.6 8.0 0.00 0.00 0.00 87 1017.8
20260506124257 18 195 1.6 8.0 0.00 0.00 0.00 87 1017.8
20260506123755 18 192 0.0 4.8 0.00 0.00 0.00 87 1017.9
20260506123514 18 192 1.6 6.4 0.00 0.00 0.00 88 1017.8
20260506122751 18 194 3.2 11.3 0.00 0.00 0.00 88 1017.8
20260506122728 17 198 3.2 11.3 0.00 0.00 0.00 88 1017.8
20260506121751 17 192 3.2 11.3 0.00 0.00 0.00 88 1017.6
20260506121250 17 201 4.8 12.9 0.00 0.00 0.00 88 1017.5
20260506120750 17 219 3.2 12.9 0.00 0.00 0.00 89 1017.3
20260506120247 17 201 4.8 14.5 0.00 0.00 0.00 89 1017.4
20260506115749 17 219 4.8 14.5 0.00 0.00 0.00 90 1017.4
20260506115248 16 202 3.2 14.5 0.00 0.00 0.00 90 1017.4
20260506114743 16 198 1.6 12.9 0.00 0.00 0.00 91 1017.3
20260506114237 16 171 1.6 9.7 0.00 0.00 0.00 92 1017.2
20260506113730 15 220 1.6 6.4 0.00 0.00 0.00 92 1017.3
20260506113224 15 220 1.6 6.4 0.00 0.00 0.00 93 1017.3
20260506112938 15 209 1.6 6.4 0.00 0.00 0.00 94 1017.2
20260506112213 15 197 0.0 6.4 0.00 0.00 0.00 94 1017.3
20260506111706 14 195 0.0 4.8 0.00 0.00 0.00 94 1017.3
20260506111200 14 195 0.0 1.6 0.00 0.00 0.00 94 1017.2
20260506110654 14 195 0.0 1.6 0.00 0.00 0.00 93 1017.2
20260506110148 14 195 0.0 0.0 0.00 0.00 0.00 93 1017.2
20260506105642 14 195 0.0 1.6 0.00 0.00 0.00 93 1017.2
20260506105136 14 195 0.0 1.6 0.00 0.00 0.00 93 1017.2
20260506104631 14 195 0.0 1.6 0.00 0.00 0.00 92 1017.1
20260506104124 14 195 0.0 0.0 0.00 0.00 0.00 92 1017.1
20260506103618 14 195 0.0 0.0 0.00 0.00 0.00 92 1016.9
20260506103112 14 195 0.0 0.0 0.00 0.00 0.00 92 1017.0
20260506102606 14 195 0.0 0.0 0.00 0.00 0.00 92 1017.0
20260506102101 14 195 0.0 0.0 0.00 0.00 0.00 92 1017.1
20260506101554 14 195 0.0 0.0 0.00 0.00 0.00 92 1017.2
20260506101048 14 195 0.0 0.0 0.00 0.00 0.00 92 1017.3
20260506100542 14 195 0.0 0.0 0.00 0.00 0.00 92 1017.2
20260506100036 14 195 0.0 0.0 0.00 0.00 0.00 92 1017.2
20260506095530 14 195 0.0 0.0 0.00 0.00 0.00 92 1017.0
20260506095025 14 195 0.0 0.0 0.00 0.00 0.00 92 1017.0
20260506094738 14 195 0.0 0.0 0.00 0.00 0.00 92 1017.1
20260506094012 14 195 0.0 0.0 0.00 0.00 0.00 92 1017.2
20260506093506 14 195 0.0 0.0 0.00 0.00 0.00 91 1017.4
20260506093000 14 195 0.0 0.0 0.00 0.00 0.00 92 1017.3
20260506092455 14 195 0.0 0.0 0.00 0.00 0.00 91 1017.3
20260506091949 14 195 0.0 0.0 0.00 0.00 0.00 91 1017.3
20260506091705 14 195 0.0 0.0 0.00 0.00 0.00 91 1017.3
20260506090936 14 195 0.0 0.0 0.00 0.00 0.00 91 1017.5
20260506090430 14 195 0.0 0.0 0.00 0.00 0.00 91 1017.5
20260506085924 14 195 0.0 0.0 0.00 0.00 0.00 91 1017.6
20260506085649 14 195 0.0 0.0 0.00 0.00 0.00 91 1017.6
20260506084918 14 195 0.0 0.0 0.00 0.00 0.00 91 1017.6
20260506084415 14 195 0.0 0.0 0.00 0.00 0.00 90 1017.6
20260506083915 14 195 0.0 0.0 0.00 0.00 0.00 90 1017.5
20260506083412 14 195 0.0 0.0 0.00 0.00 0.00 90 1017.6
20260506082910 14 195 0.0 0.0 0.00 0.00 0.00 90 1017.5
20260506082413 14 195 0.0 0.0 0.00 0.00 0.00 89 1017.6
20260506081911 14 195 0.0 0.0 0.00 0.00 0.00 89 1017.5
20260506081410 14 195 0.0 0.0 0.00 0.00 0.00 88 1017.5
20260506080909 14 195 0.0 0.0 0.00 0.00 0.00 88 1017.4
20260506080406 15 195 0.0 0.0 0.00 0.00 0.00 88 1017.3
20260506072857 15 195 0.0 0.0 0.00 0.00 0.00 86 1017.3
20260506072358 15 195 0.0 0.0 0.00 0.00 0.00 86 1017.3
20260506072119 16 195 0.0 1.6 0.00 0.00 0.00 85 1017.3
20260506071353 16 195 0.0 1.6 0.00 0.00 0.00 85 1017.2
20260506070854 16 196 0.0 0.0 0.00 0.00 0.00 85 1017.4
20260506070838 16 196 0.0 0.0 0.00 0.00 0.00 84 1017.4
20260506061854 17 196 0.0 1.6 0.00 0.00 0.00 82 1017.5
20260506061619 17 196 0.0 1.6 0.00 0.00 0.00 81 1017.2
20260506060852 17 196 0.0 3.2 0.00 0.00 0.00 81 1017.1
20260506060623 17 196 0.0 3.2 0.00 0.00 0.00 81 1017.1
20260506051406 17 215 1.6 6.4 0.00 0.00 0.00 80 1018.0
20260506050528 17 202 1.6 6.4 0.00 0.00 0.00 80 1018.0
20260506045026 17 205 1.6 8.0 0.00 0.00 0.00 80 1018.2
20260506044301 17 207 1.6 8.0 0.00 0.00 0.00 80 1018.1
20260506043758 17 200 1.6 6.4 0.00 0.00 0.00 81 1018.2
20260506043300 17 150 0.0 4.8 0.00 0.00 0.00 81 1018.4
20260506043240 17 202 0.0 3.2 0.00 0.00 0.00 81 1018.3
20260506042300 17 201 0.0 3.2 0.00 0.00 0.00 81 1018.3
20260506041756 17 180 0.0 4.8 0.00 0.00 0.00 80 1018.5
20260506041253 17 180 0.0 4.8 0.00 0.00 0.00 80 1018.4
20260506040752 17 185 0.0 4.8 0.00 0.00 0.00 80 1018.4
20260506040252 17 185 0.0 4.8 0.00 0.00 0.00 79 1018.3
20260506035750 17 198 0.0 0.0 0.00 0.00 0.00 78 1018.2
20260506035245 17 198 0.0 0.0 0.00 0.00 0.00 78 1018.3
20260506034739 17 198 0.0 0.0 0.00 0.00 0.00 78 1018.3
20260506034232 17 198 0.0 0.0 0.00 0.00 0.00 77 1018.3
20260506033726 18 198 0.0 1.6 0.00 0.00 0.00 77 1018.3
20260506033221 18 198 0.0 3.2 0.00 0.00 0.00 76 1018.2
20260506032714 18 199 0.0 3.2 0.00 0.00 0.00 76 1018.5
20260506032208 18 197 0.0 3.2 0.00 0.00 0.00 76 1018.5
20260506031924 18 218 0.0 4.8 0.00 0.00 0.00 75 1018.6
20260506031156 18 218 1.6 6.4 0.00 0.00 0.00 75 1018.6
20260506030656 18 190 1.6 6.4 0.00 0.00 0.00 74 1018.6
20260506030153 18 142 3.2 8.0 0.00 0.00 0.00 74 1018.7
20260506025930 18 205 3.2 8.0 0.00 0.00 0.00 74 1018.8
20260506025146 19 194 1.6 6.4 0.00 0.00 0.00 73 1018.8
20260506024640 19 189 1.6 11.3 0.00 0.00 0.00 73 1018.7
20260506024134 19 181 3.2 11.3 0.00 0.00 0.00 73 1018.9
20260506023628 19 205 3.2 12.9 0.00 0.00 0.00 72 1018.7
20260506023347 19 206 4.8 12.9 0.00 0.00 0.00 72 1018.7
20260506022838 19 184 4.8 11.3 0.00 0.00 0.00 72 1018.6
20260506022110 19 242 3.2 11.3 0.00 0.00 0.00 71 1018.7
20260506021604 20 200 1.6 11.3 0.00 0.00 0.00 71 1018.5
20260506021058 20 215 1.6 8.0 0.00 0.00 0.00 71 1018.4
20260506020552 20 185 1.6 8.0 0.00 0.00 0.00 70 1018.4
20260506020045 20 212 1.6 12.9 0.00 0.00 0.00 70 1018.2
20260506015540 20 215 3.2 12.9 0.00 0.00 0.00 70 1018.2
20260506015520 20 205 3.2 17.7 0.00 0.00 0.00 69 1018.1
20260506014528 20 207 4.8 17.7 0.00 0.00 0.00 69 1018.1
20260506014022 20 142 3.2 9.7 0.00 0.00 0.00 69 1018.0
20260506013516 20 173 3.2 11.3 0.00 0.00 0.00 68 1017.8
20260506013010 20 207 4.8 12.9 0.00 0.00 0.00 68 1017.9
20260506012504 21 188 4.8 12.9 0.00 0.00 0.00 68 1017.7
20260506011958 21 173 1.6 12.9 0.00 0.00 0.00 68 1017.8
20260506011452 21 162 3.2 12.9 0.00 0.00 0.00 67 1017.6
20260506010946 21 173 3.2 16.1 0.00 0.00 0.00 67 1017.7
20260506010708 21 176 3.2 16.1 0.00 0.00 0.00 66 1017.6
20260506005937 21 95 3.2 11.3 0.00 0.00 0.00 66 1017.7
20260506005702 21 257 1.6 9.7 0.00 0.00 0.00 65 1017.4
20260506004935 21 152 3.2 9.7 0.00 0.00 0.00 65 1017.4
20260506004434 21 174 3.2 9.7 0.00 0.00 0.00 64 1017.4
20260506003934 22 156 3.2 12.9 0.00 0.00 0.00 63 1017.3
20260506003435 22 194 1.6 12.9 0.00 0.00 0.00 62 1017.3
20260506002933 22 209 1.6 9.7 0.00 0.00 0.00 61 1017.4
20260506002434 22 171 1.6 8.0 0.00 0.00 0.00 61 1017.3
20260506002418 22 171 1.6 8.0 0.00 0.00 0.00 60 1017.4
20260506001431 23 153 3.2 11.3 0.00 0.00 0.00 59 1017.1
20260506000932 23 202 4.8 14.5 0.00 0.00 0.00 58 1017.2
20260506000920 23 184 4.8 14.5 0.00 0.00 0.00 58 1017.2
20260505235931 23 200 3.2 11.3 0.00 0.00 0.00 57 1017.1
20260505235430 23 254 3.2 11.3 0.00 0.00 0.00 57 1017.0
20260505234931 23 192 4.8 17.7 0.00 0.00 0.00 57 1016.9
20260505234426 23 179 4.8 17.7 0.00 0.00 0.00 56 1017.0
20260505234145 24 171 3.2 12.9 0.00 0.00 0.00 56 1016.9
20260505233648 24 217 3.2 14.5 0.00 0.00 0.00 56 1016.9
20260505233148 24 177 3.2 14.5 0.00 0.00 0.00 56 1016.8
20260505232426 25 216 4.8 14.5 0.00 0.00 0.00 56 1016.7
20260505232146 25 217 4.8 14.5 0.00 0.00 0.00 54 1016.7
20260505231426 25 212 3.2 14.5 0.00 0.00 0.00 54 1016.5
20260505230925 25 118 1.6 11.3 0.00 0.00 0.00 53 1016.5
20260505230646 25 188 1.6 11.3 0.00 0.00 0.00 53 1016.5
20260505225924 26 190 3.2 11.3 0.00 0.00 0.00 52 1016.5
20260505225424 26 157 3.2 14.5 0.00 0.00 0.00 51 1016.6
20260505224926 26 186 4.8 14.5 0.00 0.00 0.00 49 1016.6
20260505224424 26 196 6.4 14.5 0.00 0.00 0.00 46 1016.8
20260505223926 26 171 4.8 14.5 0.00 0.00 0.00 46 1016.9
20260505223425 26 189 3.2 12.9 0.00 0.00 0.00 45 1016.8
20260505222925 26 208 3.2 12.9 0.00 0.00 0.00 45 1016.8
20260505222424 26 220 3.2 14.5 0.00 0.00 0.00 46 1016.8
20260505221923 26 213 3.2 14.5 0.00 0.00 0.00 44 1016.7
20260505221417 26 192 3.2 9.7 0.00 0.00 0.00 44 1016.8
20260505220910 26 209 3.2 12.9 0.00 0.00 0.00 47 1016.7
20260505220638 26 198 4.8 12.9 0.00 0.00 0.00 46 1016.6
20260505215859 26 200 4.8 12.9 0.00 0.00 0.00 47 1016.7
20260505215353 26 190 3.2 11.3 0.00 0.00 0.00 48 1016.7
20260505214847 26 182 4.8 11.3 0.00 0.00 0.00 49 1016.8
20260505214341 26 204 4.8 17.7 0.00 0.00 0.00 48 1016.8
20260505213835 26 213 3.2 17.7 0.00 0.00 0.00 48 1016.9
20260505213328 26 196 3.2 16.1 0.00 0.00 0.00 49 1016.9
20260505212822 26 207 4.8 16.1 0.00 0.00 0.00 48 1016.8
20260505212315 26 199 4.8 11.3 0.00 0.00 0.00 48 1016.9
20260505212033 26 182 4.8 11.3 0.00 0.00 0.00 48 1017.0
20260505211311 26 313 4.8 9.7 0.00 0.00 0.00 47 1017.1
20260505210812 26 208 4.8 11.3 0.00 0.00 0.00 46 1017.1
20260505210309 26 209 4.8 12.9 0.00 0.00 0.00 45 1017.1
20260505205808 27 192 4.8 12.9 0.00 0.00 0.00 46 1017.0
20260505205310 27 202 4.8 11.3 0.00 0.00 0.00 45 1017.0
20260505204807 27 152 4.8 17.7 0.00 0.00 0.00 44 1016.9
20260505204534 27 321 4.8 17.7 0.00 0.00 0.00 46 1017.1
20260505203806 27 188 4.8 14.5 0.00 0.00 0.00 45 1017.1
20260505203304 27 202 3.2 14.5 0.00 0.00 0.00 45 1017.1
20260505202804 27 159 3.2 9.7 0.00 0.00 0.00 48 1017.1
20260505202307 27 203 3.2 14.5 0.00 0.00 0.00 48 1017.3
20260505201802 27 206 4.8 17.7 0.00 0.00 0.00 47 1017.2
20260505201302 27 265 6.4 20.9 0.00 0.00 0.00 47 1017.4
20260505200801 27 191 6.4 20.9 0.00 0.00 0.00 48 1017.4
20260505200302 27 169 4.8 16.1 0.00 0.00 0.00 47 1017.4
20260505195759 27 128 4.8 14.5 0.00 0.00 0.00 46 1017.5
20260505195253 27 192 6.4 17.7 0.00 0.00 0.00 48 1017.6
20260505194748 27 186 4.8 17.7 0.00 0.00 0.00 47 1017.7
20260505194506 27 177 6.4 19.3 0.00 0.00 0.00 48 1017.6
20260505193735 27 207 6.4 19.3 0.00 0.00 0.00 47 1017.8
20260505193229 27 193 6.4 14.5 0.00 0.00 0.00 47 1017.9
20260505192723 27 217 4.8 14.5 0.00 0.00 0.00 49 1018.0
20260505192446 27 207 4.8 17.7 0.00 0.00 0.00 48 1018.1
20260505191711 27 151 4.8 17.7 0.00 0.00 0.00 49 1018.2
20260505191206 27 157 4.8 12.9 0.00 0.00 0.00 50 1018.1
20260505190659 27 161 4.8 12.9 0.00 0.00 0.00 50 1018.2
20260505190153 27 40 3.2 14.5 0.00 0.00 0.00 50 1018.2
20260505185647 27 207 3.2 14.5 0.00 0.00 0.00 49 1018.2
20260505185140 27 183 3.2 12.9 0.00 0.00 0.00 48 1018.3
20260505184636 27 182 3.2 12.9 0.00 0.00 0.00 47 1018.3
20260505184351 27 141 4.8 12.9 0.00 0.00 0.00 50 1018.5
20260505183623 27 235 4.8 16.1 0.00 0.00 0.00 48 1018.5
20260505183117 27 182 3.2 16.1 0.00 0.00 0.00 48 1018.5
20260505182611 27 163 3.2 12.9 0.00 0.00 0.00 50 1018.6
20260505182105 27 184 4.8 11.3 0.00 0.00 0.00 48 1018.7
20260505181600 27 163 3.2 11.3 0.00 0.00 0.00 48 1018.7
20260505181053 27 234 3.2 11.3 0.00 0.00 0.00 48 1018.7
20260505180547 27 171 4.8 9.7 0.00 0.00 0.00 50 1018.7
20260505180042 27 165 3.2 11.3 0.00 0.00 0.00 49 1018.6
20260505175535 27 194 3.2 11.3 0.00 0.00 0.00 52 1018.8
20260505175029 26 201 4.8 11.3 0.00 0.00 0.00 52 1018.7
20260505174523 26 207 3.2 9.7 0.00 0.00 0.00 52 1018.8
20260505174017 26 208 3.2 11.3 0.00 0.00 0.00 51 1018.8
20260505173511 26 198 3.2 9.7 0.00 0.00 0.00 52 1018.8
20260505173005 26 207 3.2 11.3 0.00 0.00 0.00 51 1018.8
20260505172459 26 217 3.2 11.3 0.00 0.00 0.00 52 1019.0
20260505171953 26 207 3.2 9.7 0.00 0.00 0.00 53 1019.0
20260505171447 26 207 4.8 11.3 0.00 0.00 0.00 52 1019.2
20260505171425 26 191 3.2 17.7 0.00 0.00 0.00 52 1019.4
20260505170438 26 96 3.2 17.7 0.00 0.00 0.00 52 1019.4
20260505165937 26 157 4.8 17.7 0.00 0.00 0.00 53 1019.5
20260505165438 26 136 3.2 12.9 0.00 0.00 0.00 53 1019.4
20260505164938 26 188 3.2 12.9 0.00 0.00 0.00 53 1019.6
20260505164438 25 220 3.2 14.5 0.00 0.00 0.00 53 1019.7
20260505164202 26 176 4.8 14.5 0.00 0.00 0.00 54 1019.7
20260505163437 26 229 3.2 9.7 0.00 0.00 0.00 53 1019.8
20260505163158 26 162 3.2 14.5 0.00 0.00 0.00 54 1019.7
20260505162439 25 175 3.2 14.5 0.00 0.00 0.00 56 1019.8
20260505161939 25 215 4.8 14.5 0.00 0.00 0.00 55 1019.7
20260505161438 25 223 4.8 11.3 0.00 0.00 0.00 54 1019.8
20260505161159 25 153 3.2 9.7 0.00 0.00 0.00 55 1019.9
20260505160438 25 213 1.6 8.0 0.00 0.00 0.00 56 1019.8
20260505152939 23 200 6.4 16.1 0.00 0.00 0.00 60 1020.2
20260505152438 23 218 3.2 16.1 0.00 0.00 0.00 61 1020.3
20260505152203 23 205 3.2 9.7 0.00 0.00 0.00 62 1020.3
20260505151439 23 320 4.8 19.3 0.00 0.00 0.00 66 1020.2
20260505150938 23 229 4.8 19.3 0.00 0.00 0.00 62 1020.3
20260505150438 22 315 6.4 16.1 0.00 0.00 0.00 63 1020.2
20260505140413 20 90 3.2 11.3 0.00 0.00 0.00 76 1020.1
20260505140136 20 200 1.6 11.3 0.00 0.00 0.00 76 1020.1